LiveATC.Net - Listen to live air traffic control over the Internet! Contact for advertising information

ICAO: FMEE  IATA: RUN   Airport: Roland Garros Airport
City: Sainte-Marie
Country: Reunion   Continent: Africa
FMEE METAR Weather: FMEE 270400Z 11011KT 9999 SCT023 BKN060 27/20 Q1016 NOSIG
FMEE Flight Activity (FlightAware)
FMEE Tower
Feed Status: UP   Listeners: 2
Listen right in your browser - requires Flash (in browser, requires Flash)
Click here to listen with your own player (launches your MP3 player)
FMEE Tower Audio Archives
Gillot Tower118.400


Unauthorized use prohibited. See Terms of Service

Find LiveATC Audio Streams

Airport/ARTCC Code

(e.g., 124.400, 128.75)
Site-wide search

Browse LiveATC Feeds
LiveATC Coverage Map
Top 50 LiveATC Feeds
Bad Weather Areas

Offer a LiveATC Feed
Press Inquiries

LiveATC on iPhone
LiveATC on Android

Windows Phone
Windows 8/10

LiveATC Mobile
(Mobile browser)

ATC Audio Archives
Interesting Recordings

LiveATC Forums

Home Page
Make a Donation
LiveATC Bookstore

Terms of Use
Privacy Policy

ATC/Radar Sites
U.S. ARTCC Freqs
Canadian Air Freqs


FAA Airport Status
Nat'l Airspace Status
Arrival Demand Charts

Server Software By:

Please make a donation to help us keep growing!